OneWeb SL0569

operational
NORAD ID: 55148 Int'l Des: 2023-004 Owner: ONEWEBN Country: UK Constellation: oneweb
LEOCIRCULARPOLARONEWEB_TYPE

About OneWeb SL0569

Description loading...

Live Position

Loading 3D Globe...

Upcoming Passes

Altitude History

Altitude vs Time

uPlot chart will show altitude changes over time

Two-Line Element Set

1 55148U 23004J 25258.61642896 .00000561 00000-0 15025-2 0 9993
2 55148 87.9042 14.7495 0001357 131.8153 228.3092 13.13471173134132
Epoch: Sep 15, 2025 • Age: 9 hours

Current Status

Altitude 1212.5 km
Velocity 7.25 km/s
Sub-Earth Point 8.96°N, 20.09°E
Launch Date Jan 10, 2023
Age 2.6 years
Type internet

Technical Details

Classification Payload
Mass 148.00 kg
Dry Mass 140.00 kg
Total Mass 148.00 kg
Length 1.30 m
Diameter 1.00 m
Span 5.00 m
Shape Trapezoid+2 pan
Manufacturer ONEWUS
Bus Type ARROW
Phase Status In Orbit
Owner/State ONEWEBN/UK

Large Constellations

Loading constellations...